Torna al catalogo

AURORA 1

AttivoComunicazioniPO
NORAD 2876·PAYLOAD·🇺🇸 United States

Lanciato Jun 29, 1967 da Vandenberg Space Force Base

Loading…

Prossimi Passaggi (prossime 24 ore)

TLE

AggiornatoSource: Space-Track

Epoca: Sep 14, 2026, 14:11 UTC

1 02876U 67065B   26257.59130620  .00000012  00000-0  64271-2 0  9990
2 02876  89.9742 313.2070 0070194  21.4198 338.9554  8.36560232397085

Traccia AURORA 1 in tempo reale con AllMySat

Download on the App Store